This demonstration page uses our WeatherBlox Daily Observations layout. Learn more.

Left ArrowRight Arrow

38.20091, -84.87328

Hourly Observations for February 19, 2018

Temp ( °F °C ) Dew Point ( °F °C ) Humidity (%) Winds ( mph kmh ) Pressure ( in mb ) Visibility ( mi km ) Precip ( " mm )
12:49 am 00:49 Cloudy 48 9 34 1 58 58 S 7 11 30.12 1020 10 16 0.00 0.00
12:53 am 00:53 Cloudy 50 10 34 1.1 54 54 S 8 13 30.10 1019 10 16 0.00 0.00
1:53 am 01:53 Cloudy 51 10.6 37 2.8 59 59 S 7 11 30.09 1019 10 16 0.00 0.00
2:53 am 02:53 Cloudy 53 11.7 40 4.4 61 61 S 6 9 30.10 1019 10 16 0.00 0.00
3:53 am 03:53 Cloudy 56 13.3 47 8.3 72 72 SSW 10 17 30.09 1019 10 16 0.00 0.03
4:51 am 04:51 Cloudy 57 14 50 10 77 77 SSW 14 22 30.09 1019 10 16 0.00 0.00
4:53 am 04:53 Cloudy 57 13.9 50 10 78 78 SSW 13 20 30.10 1019 10 16 0.00 0.00
5:42 am 05:42 Cloudy 58 14.4 52 11.1 81 81 S 13 20 30.09 1019 10 16 0.00 0.00
5:53 am 05:53 Cloudy 58 14.4 52 11.1 81 81 S 12 19 30.10 1019 10 16 0.00 0.00
6:29 am 06:29 Cloudy 59 15 52 11.1 78 78 S 9 15 30.09 1019 10 16 0.00 0.00
6:53 am 06:53 Cloudy 59 15 53 11.7 81 81 S 10 17 30.09 1019 10 16 0.00 0.00
7:53 am 07:53 Cloudy 59 15 53 11.7 81 81 SSW 13 20 30.10 1019 10 16 0.00 0.00
8:18 am 08:18 Cloudy 60 15.6 54 12.2 80 80 undefined N/A 30.12 1020 10 16 0.00 0.00
8:53 am 08:53 Mostly Sunny 62 16.7 54 12.2 75 75 S 13 20 30.11 1020 10 16 0.00 0.00
9:48 am 09:48 Mostly Cloudy 66 19 55 13 68 68 S 20 31 30.09 1019 10 16 0.00 0.00
9:53 am 09:53 Mostly Cloudy 66 18.9 56 13.3 70 70 SSW 17 28 30.09 1019 10 16 0.00 0.00
10:16 am 10:16 Partly Cloudy 68 20 57 13.9 68 68 SSW 17 28 30.09 1019 10 16 0.00 0.00
10:53 am 10:53 Mostly Cloudy 70 21.1 57 13.9 64 64 SSW 18 30 30.09 1019 10 16 0.00 0.00
11:00 am 11:00 Mostly Cloudy 70 21.1 57 13.9 64 64 SW 18 30 30.09 1019 10 16 0.00 0.00
11:09 am 11:09 Mostly Cloudy 70 21.1 57 13.9 64 64 SSW 18 30 30.09 1019 10 16 0.00 0.00
11:53 am 11:53 Cloudy 70 21.1 57 13.9 64 64 SSW 22 35 30.09 1019 10 16 0.00 0.00
12:53 pm 12:53 Cloudy 72 22.2 57 13.9 59 59 SSW 18 30 30.09 1019 10 16 0.00 0.00
1:53 pm 13:53 Cloudy 74 23.3 58 14.4 57 57 SSW 15 24 30.06 1018 10 16 0.00 0.00
2:53 pm 14:53 Mostly Cloudy 75 23.9 55 12.8 50 50 SSW 26 43 30.05 1018 10 16 0.00 0.00
3:53 pm 15:53 Mostly Cloudy 74 23.3 54 12.2 50 50 SSW 22 35 30.05 1018 10 16 0.00 0.00
4:53 pm 16:53 Partly Cloudy 74 23.3 55 12.8 52 52 SSW 18 30 30.06 1018 10 16 0.00 0.00
5:53 pm 17:53 Partly Cloudy 72 22.2 54 12.2 53 53 S 13 20 30.08 1019 10 16 0.00 0.00
6:53 pm 18:53 Clear 69 20.6 54 12.2 59 59 S 10 17 30.09 1019 10 16 0.00 0.00
7:53 pm 19:53 Clear 67 19.4 54 12.2 63 63 S 7 11 30.10 1019 10 16 0.00 0.00
8:53 pm 20:53 Clear 65 18.3 53 11.7 66 66 S 10 17 30.10 1019 10 16 0.00 0.00
9:53 pm 21:53 Clear 65 18.3 53 11.7 66 66 S 12 19 30.10 1019 10 16 0.00 0.00
10:53 pm 22:53 Clear 64 17.8 53 11.7 68 68 S 10 17 30.10 1019 10 16 0.00 0.00
11:53 pm 23:53 Clear 63 17.2 54 12.2 73 73 S 10 17 30.10 1019 10 16 0.00 0.00

Powered by AerisWeather